When you browse on this site, cookies collect data to enhance your experience and personalize the content and advertising you see.
Visit our Privacy Policy to learn more. By continuing to use the site, you agree to this use of cookies and data.
  • en Suisse
  • Liste des pays
  • À 7 jours
  • Température de l'eau
  • Carte satellitaire
  • Carte météo
  • Widgets météo
  • user-avatar
    Se connecter

    Météo par heure à Barisal

    Ce jour, 20 Juin, Jeudi

    Heure Température Précipitation Vent Pression Humidité
    00:00 +32°C° 0 mm 2 m/s 750 mmHg 75%
    01:00 +32°C° 0.3 mm 2 m/s 750 mmHg 76%
    02:00 +32°C° 0.3 mm 1 m/s 749 mmHg 76%
    03:00 +32°C° 0.3 mm 1 m/s 749 mmHg 77%
    04:00 +32°C° 0.1 mm 1 m/s 749 mmHg 76%
    05:00 +32°C° 0.1 mm 1 m/s 749 mmHg 76%
    06:00 +30°C° 0 mm 0 m/s 750 mmHg 75%
    07:00 +33°C° 0.2 mm 1 m/s 750 mmHg 69%
    08:00 +35°C° 0.2 mm 2 m/s 751 mmHg 64%
    09:00 +35°C° 0.2 mm 3 m/s 751 mmHg 58%
    10:00 +35°C° 0.1 mm 3 m/s 751 mmHg 60%
    11:00 +35°C° 0.1 mm 4 m/s 751 mmHg 63%
    12:00 +34°C° 0.1 mm 5 m/s 751 mmHg 65%
    13:00 +34°C° 0.1 mm 4 m/s 750 mmHg 63%
    14:00 +35°C° 0.1 mm 2 m/s 749 mmHg 62%
    15:00 +34°C° 0.1 mm 1 m/s 748 mmHg 60%
    16:00 +35°C° 0 mm 2 m/s 748 mmHg 60%
    17:00 +35°C° 0 mm 3 m/s 749 mmHg 60%
    18:00 +35°C° 0 mm 3 m/s 749 mmHg 59%
    19:00 +34°C° 0 mm 3 m/s 749 mmHg 65%
    20:00 +33°C° 0 mm 3 m/s 750 mmHg 70%
    21:00 +31°C° 0 mm 3 m/s 750 mmHg 75%
    22:00 +31°C° 0 mm 3 m/s 751 mmHg 77%
    23:00 +31°C° 0 mm 3 m/s 751 mmHg 79%

    Demain, 21 Juin, Vendredi

    Heure Température Précipitation Vent Pression Humidité
    00:00 +31°C° 0 mm 3 m/s 751 mmHg 80%
    01:00 +30°C° 0 mm 2 m/s 751 mmHg 81%
    02:00 +30°C° 0 mm 2 m/s 750 mmHg 82%
    03:00 +30°C° 0 mm 2 m/s 750 mmHg 83%
    04:00 +30°C° 0.4 mm 1 m/s 750 mmHg 82%
    05:00 +30°C° 0.4 mm 1 m/s 750 mmHg 81%
    06:00 +30°C° 0.4 mm 1 m/s 750 mmHg 81%
    07:00 +31°C° 0.1 mm 1 m/s 751 mmHg 75%
    08:00 +34°C° 0.1 mm 2 m/s 751 mmHg 69%
    09:00 +35°C° 0.1 mm 2 m/s 751 mmHg 63%
    10:00 +36°C° 0 mm 3 m/s 751 mmHg 60%
    11:00 +36°C° 0 mm 4 m/s 751 mmHg 58%
    12:00 +37°C° 0 mm 4 m/s 751 mmHg 55%
    13:00 +37°C° 1 mm 4 m/s 750 mmHg 56%
    14:00 +37°C° 1 mm 4 m/s 750 mmHg 57%
    15:00 +37°C° 1 mm 4 m/s 749 mmHg 57%
    16:00 +36°C° 1 mm 4 m/s 749 mmHg 60%
    17:00 +36°C° 1 mm 4 m/s 749 mmHg 63%
    18:00 +35°C° 1 mm 4 m/s 749 mmHg 65%
    19:00 +34°C° 0 mm 4 m/s 749 mmHg 68%
    20:00 +34°C° 0 mm 4 m/s 750 mmHg 70%
    21:00 +33°C° 0 mm 4 m/s 751 mmHg 73%
    22:00 +33°C° 0 mm 4 m/s 751 mmHg 74%
    23:00 +33°C° 0 mm 4 m/s 751 mmHg 76%

    Après-demain, 22 Juin, Samedi

    Heure Température Précipitation Vent Pression Humidité
    00:00 +32°C° 0 mm 4 m/s 751 mmHg 77%
    01:00 +32°C° 0.6 mm 4 m/s 751 mmHg 78%
    02:00 +32°C° 0.6 mm 4 m/s 751 mmHg 79%
    03:00 +32°C° 0.6 mm 4 m/s 750 mmHg 81%
    04:00 +31°C° 0.3 mm 3 m/s 750 mmHg 81%
    05:00 +31°C° 0.3 mm 3 m/s 751 mmHg 81%
    06:00 +31°C° 0.3 mm 2 m/s 751 mmHg 81%
    07:00 +33°C° 0.1 mm 3 m/s 751 mmHg 75%
    08:00 +34°C° 0.1 mm 4 m/s 752 mmHg 69%
    09:00 +35°C° 0.1 mm 4 m/s 752 mmHg 63%
    10:00 +36°C° 0.1 mm 5 m/s 752 mmHg 60%
    11:00 +37°C° 0.1 mm 5 m/s 751 mmHg 56%
    12:00 +39°C° 0.1 mm 6 m/s 751 mmHg 53%
    13:00 +39°C° 0.3 mm 6 m/s 751 mmHg 54%
    14:00 +38°C° 0.3 mm 6 m/s 750 mmHg 55%
    15:00 +38°C° 0.3 mm 6 m/s 750 mmHg 57%
    16:00 +36°C° 0.2 mm 6 m/s 750 mmHg 59%
    17:00 +36°C° 0.2 mm 6 m/s 750 mmHg 62%
    18:00 +35°C° 0.2 mm 5 m/s 750 mmHg 65%
    19:00 +34°C° 0 mm 5 m/s 750 mmHg 68%
    20:00 +33°C° 0 mm 5 m/s 750 mmHg 71%
    21:00 +33°C° 0 mm 4 m/s 751 mmHg 75%
    22:00 +33°C° 0 mm 4 m/s 751 mmHg 76%
    23:00 +32°C° 0 mm 4 m/s 751 mmHg 78%

    23 Juin, Dimanche

    Heure Température Précipitation Vent Pression Humidité
    00:00 +31°C° 0 mm 3 m/s 751 mmHg 79%
    01:00 +31°C° 0 mm 3 m/s 751 mmHg 80%
    02:00 +31°C° 0 mm 3 m/s 751 mmHg 81%
    03:00 +31°C° 0 mm 3 m/s 750 mmHg 82%
    04:00 +31°C° 0 mm 3 m/s 751 mmHg 81%
    05:00 +31°C° 0 mm 3 m/s 751 mmHg 81%
    06:00 +31°C° 0 mm 3 m/s 751 mmHg 80%
    07:00 +33°C° 0 mm 3 m/s 752 mmHg 74%
    08:00 +34°C° 0 mm 3 m/s 752 mmHg 67%
    09:00 +36°C° 0 mm 4 m/s 752 mmHg 61%
    10:00 +36°C° 0.1 mm 4 m/s 752 mmHg 59%
    11:00 +37°C° 0.1 mm 4 m/s 752 mmHg 57%
    12:00 +37°C° 0.1 mm 5 m/s 751 mmHg 55%
    13:00 +37°C° 0 mm 5 m/s 751 mmHg 53%
    14:00 +37°C° 0 mm 5 m/s 750 mmHg 52%
    15:00 +38°C° 0 mm 6 m/s 750 mmHg 51%
    16:00 +37°C° 0 mm 5 m/s 749 mmHg 54%
    17:00 +36°C° 0 mm 5 m/s 749 mmHg 58%
    18:00 +35°C° 0 mm 5 m/s 749 mmHg 61%
    19:00 +34°C° 0 mm 5 m/s 750 mmHg 65%
    20:00 +34°C° 0 mm 5 m/s 750 mmHg 69%
    21:00 +33°C° 0 mm 4 m/s 751 mmHg 74%
    22:00 +33°C° 0 mm 4 m/s 751 mmHg 75%
    23:00 +32°C° 0 mm 4 m/s 751 mmHg 76%

    24 Juin, Lundi

    Heure Température Précipitation Vent Pression Humidité
    00:00 +32°C° 0 mm 4 m/s 751 mmHg 78%
    01:00 +32°C° 0.1 mm 4 m/s 751 mmHg 79%
    02:00 +31°C° 0.1 mm 3 m/s 751 mmHg 80%
    03:00 +31°C° 0.1 mm 3 m/s 751 mmHg 81%
    04:00 +31°C° 0.1 mm 3 m/s 751 mmHg 81%
    05:00 +31°C° 0.1 mm 3 m/s 751 mmHg 80%
    06:00 +31°C° 0.1 mm 3 m/s 751 mmHg 80%
    07:00 +33°C° 0 mm 3 m/s 751 mmHg 72%
    08:00 +35°C° 0 mm 4 m/s 752 mmHg 65%
    09:00 +36°C° 0 mm 4 m/s 752 mmHg 58%
    10:00 +37°C° 0 mm 5 m/s 752 mmHg 55%
    11:00 +37°C° 0 mm 5 m/s 751 mmHg 53%
    12:00 +39°C° 0 mm 5 m/s 751 mmHg 51%
    13:00 +39°C° 0 mm 5 m/s 751 mmHg 51%
    14:00 +39°C° 0 mm 6 m/s 750 mmHg 51%
    15:00 +39°C° 0 mm 6 m/s 749 mmHg 50%
    16:00 +38°C° 0 mm 6 m/s 749 mmHg 53%
    17:00 +36°C° 0 mm 6 m/s 749 mmHg 57%
    18:00 +35°C° 0 mm 6 m/s 749 mmHg 60%
    19:00 +34°C° 0 mm 6 m/s 750 mmHg 64%
    20:00 +33°C° 0 mm 5 m/s 751 mmHg 69%
    21:00 +32°C° 0 mm 5 m/s 751 mmHg 74%
    22:00 +32°C° 0 mm 5 m/s 751 mmHg 75%
    23:00 +32°C° 0 mm 5 m/s 751 mmHg 76%

    25 Juin, Mardi

    Heure Température Précipitation Vent Pression Humidité
    00:00 +32°C° 0 mm 5 m/s 751 mmHg 77%
    01:00 +32°C° 0 mm 5 m/s 751 mmHg 77%
    02:00 +32°C° 0 mm 5 m/s 751 mmHg 78%
    03:00 +32°C° 0 mm 5 m/s 751 mmHg 79%
    04:00 +32°C° 0 mm 5 m/s 751 mmHg 78%
    05:00 +32°C° 0 mm 5 m/s 751 mmHg 78%
    06:00 +32°C° 0 mm 5 m/s 751 mmHg 77%
    07:00 +33°C° 0 mm 6 m/s 751 mmHg 73%
    08:00 +34°C° 0 mm 6 m/s 751 mmHg 68%
    09:00 +35°C° 0 mm 6 m/s 752 mmHg 63%
    10:00 +36°C° 0 mm 6 m/s 751 mmHg 59%
    11:00 +38°C° 0 mm 6 m/s 751 mmHg 55%
    12:00 +39°C° 0 mm 6 m/s 751 mmHg 51%
    13:00 +39°C° 0 mm 6 m/s 750 mmHg 52%
    14:00 +39°C° 0 mm 6 m/s 750 mmHg 52%
    15:00 +38°C° 0 mm 7 m/s 749 mmHg 53%
    16:00 +36°C° 0 mm 6 m/s 749 mmHg 57%
    17:00 +35°C° 0 mm 6 m/s 749 mmHg 62%
    18:00 +34°C° 0 mm 6 m/s 749 mmHg 66%
    19:00 +34°C° 0 mm 6 m/s 750 mmHg 69%
    20:00 +33°C° 0 mm 5 m/s 750 mmHg 71%
    21:00 +33°C° 0 mm 5 m/s 751 mmHg 74%
    22:00 +32°C° 0 mm 5 m/s 751 mmHg 75%
    23:00 +32°C° 0 mm 5 m/s 751 mmHg 76%
    Voir plus